Regional Weather Roundup
Issued by NWS

Home | Current Version | Previous Version | Graphics & Text | Print | Product List | Glossary On
Versions: 1 2 3 4 5 6 7 8 9 10 11 12 13 14 15 16 17 18 19 20 21 22 23 24 25 26 27 28 29 30 31 32 33 34 35 36 37 38 39 40 41 42 43 44 45 46 47 48 49 50
000
ASUS43 KIND 200259
RWRIN

WEATHER ROUNDUP FOR INDIANA
NATIONAL WEATHER SERVICE INDIANAPOLIS IN
1100 PM EDT THU APR 19 2018

NOTE: "FAIR" INDICATES FEW OR NO CLOUDS BELOW 12,000 FEET WITH NO
SIGNIFICANT WEATHER AND/OR OBSTRUCTIONS TO VISIBILITY.

* - STATION DOES NOT REPORT WEATHER SUCH AS PRECIPITATION OR FOG.

+ - STATION NOT QUALITY CONTROLLED BY THE NATIONAL WEATHER SERVICE.
    USE DATA WITH CAUTION...ESPECIALLY DEWPOINT AND RELATIVE
    HUMIDITY OBSERVATIONS.

INZ001>003-010>013-019-020-200400-
NORTHWEST INDIANA

CITY           SKY/WX    TMP DP  RH WIND       PRES   REMARKS
GARY /AIRPORT/ CLEAR     34  30  86 NW5       30.43S WCI  30
KNOX *+        FAIR      32  21  64 W5        30.40S WCI  27
MONTICELLO +   FAIR      35  18  51 N8        30.40R WCI  28

$$

LMZ046-743>745-200400-
SOUTHERN LAKE MICHIGAN

STATION/POSITION TIME  TEMP    WIND        PRES    WAVE
                       AIR SEA DIR/SP/G            HT
                 (UTC) (F)     (DEG/KT/KT) (MB)    (FT)
BURNS HARBOR     0240   41     320/  6/  8 1030.1S
MICHIGAN CITY    0230   40     310/  9/ 10   N/A

$$

INZ004-005-014>016-021>024-200400-
NORTH CENTRAL INDIANA

CITY           SKY/WX    TMP DP  RH WIND       PRES   REMARKS
GOSHEN         FAIR      37  21  52 NW13      30.37R WCI  29
PERU/GRISSOM   FAIR      38  18  44 N13       30.37R WCI  30
ROCHESTER +    FAIR      37  21  52 N7        30.39S WCI  32
SOUTH BEND     FAIR      32  22  66 N8        30.40R WCI  25
WARSAW +       FAIR      36  21  55 N7        30.38R WCI  30

$$

INZ006>009-017-018-025>027-200400-
NORTHEAST INDIANA

CITY           SKY/WX    TMP DP  RH WIND       PRES   REMARKS
ANGOLA *+      FAIR      37  27  65 NW9       30.34S WCI  31
FORT WAYNE     FAIR      39  26  59 NW12      30.35R WCI  32
KENDALLVILLE + FAIR      36  22  57 NW8       30.35S WCI  30

$$

INZ028-029-035-036-043>045-051>053-200400-
WEST CENTRAL INDIANA

CITY           SKY/WX    TMP DP  RH WIND       PRES   REMARKS
GREENCASTLE +  FAIR      41  18  38 N8        30.40R
LAFAYETTE      FAIR      38  19  46 N6        30.41R WCI  33
TERRE HAUTE    FAIR      45  21  38 N9        30.40R

$$

INZ030>032-037>040-046>048-054>057-064-065-200400-
CENTRAL INDIANA

CITY           SKY/WX    TMP DP  RH WIND       PRES   REMARKS
INDIANAPOLIS   FAIR      41  18  39 N14       30.38R
-EAGLE CREEK   FAIR      42  20  41 N12       30.37R
KOKOMO +       FAIR      37  21  52 N13       30.38S WCI  29
SHELBYVILLE    FAIR      43  22  43 N12       30.35R
ZIONSVILLE +   FAIR      37  22  54 N9        30.38R WCI  30

$$

INZ033-034-041-042-049-050-058-059-200400-
EAST CENTRAL INDIANA

CITY           SKY/WX    TMP DP  RH WIND       PRES   REMARKS
MUNCIE         FAIR      39  26  59 NW10      30.35R WCI  32
RICHMOND +     FAIR      41  28  60 NW14      30.32R

$$

INZ060-061-067>069-081>083-085>088-200400-
SOUTHWEST INDIANA

CITY           SKY/WX    TMP DP  RH WIND       PRES   REMARKS
EVANSVILLE     FAIR      46  35  65 CALM      30.39R
HUNTINGBURG +  FAIR      44  33  65 NW3       30.38R

$$

INZ062-063-066-070>080-084-089>092-200400-
SOUTH CENTRAL AND SOUTHEAST INDIANA

CITY           SKY/WX    TMP DP  RH WIND       PRES   REMARKS
BLOOMINGTON    FAIR      45  23  42 N6        30.37R
SEYMOUR +      FAIR      48  27  43 N9        30.36R

$$





USA.gov is the U.S. government's official web portal to all federal, state and local government web resources and services.